Location: 3 Angels Observatory
(30.5437°N, 88.5068°W)
Time: 08:24:11
(UTC-05:00)

Daily predictions for brighter satellites

Satellite Brightness Start Highest point End
(mag) Time Altitude Azimuth Time Altitude Azimuth Time Altitude Azimuth
DELTA 2 R/B (1) 4.2 20:17:55 10° WNW 20:23:20 51° NNE 20:28:43 10° E
FengYun 1-2 T 4.4 20:18:57 10° SSE 20:24:27 85° WSW 20:30:02 10° NNW
CZ-2D R/B 3.4 20:20:43 10° SSE 20:24:31 57° ENE 20:28:18 10° N
Cosmos 1500 Rocket 3.6 20:20:49 10° S 20:25:08 64° E 20:29:30 10° NNE
Cosmos 2151 4.0 20:25:05 10° SSE 20:28:36 27° E 20:32:08 10° NNE
Cosmos 1437 Rocket 3.4 20:27:29 10° N 20:31:04 37° E 20:34:41 10° SSE
Cosmos 1538 Rocket 4.1 20:25:49 10° NNW 20:31:12 87° WSW 20:36:35 10° SSE
NOSS 3-1 (A) 3.6 20:27:54 10° S 20:33:19 44° ESE 20:39:06 10° NE
Cosmos 773 Rocket 4.2 20:32:54 10° N 20:38:03 58° ENE 20:43:13 10° SSE
Cosmos 405 4.0 20:35:38 10° NNE 20:38:52 30° E 20:42:03 10° SE
Delta 2 Rocket 4.4 20:36:35 10° WNW 20:40:17 36° N 20:43:37 10° ENE
Cosmos 1437 3.3 20:38:07 10° SSE 20:41:11 39° E 20:44:17 10° NNE
ALOS 2.3 20:37:50 10° SSE 20:42:30 89° W 20:47:11 10° NNW
Cosmos 2219 3.2 20:39:30 10° SSW 20:45:13 75° ESE 20:50:58 10° NNE
Cosmos 1939 Rocket 4.2 20:42:40 11° ESE 20:45:26 22° ENE 20:48:27 10° NNE
Tiangong 1 3.9 20:43:42 10° WNW 20:46:01 19° NNW 20:48:19 10° NNE
FENGYUN 3A 3.7 20:41:56 10° SSE 20:47:20 87° WSW 20:52:47 10° NNW
Cosmos 2228 Rocket 3.9 20:44:16 10° NNW 20:48:40 54° W 20:53:06 10° S
OAO 2 Rocket 3.7 20:45:57 10° W 20:51:14 71° NNW 20:56:34 10° ENE
S3M 4.1 20:45:17 10° N 20:51:24 80° W 20:57:33 10° S
ATLAS 2AS CENTAUR R/B 3.7 20:49:36 10° SSE 20:55:23 26° ESE 21:01:33 10° NE
Cosmos 2322 Rocket 3.4 20:50:41 10° NW 20:55:53 40° WSW 21:01:05 10° S
Sich 1 4.5 20:54:32 15° SE 20:56:37 20° E 20:59:51 10° NE
Resurs 01 Rocket 4.4 20:56:52 10° SW 20:59:23 15° W 21:01:55 10° WNW
Cosmos 1515 Rocket 3.8 20:55:41 10° N 21:00:04 70° W 21:04:24 10° S
Cosmos 1328 3.8 20:56:41 10° S 21:00:32 58° E 21:04:26 10° NNE
Cosmos 2322 3.8 20:55:09 10° NNW 21:00:50 67° ENE 21:05:37 15° SSE
deb Chang Zheng 4 3.5 20:57:39 10° NNE 21:01:58 66° ESE 21:06:17 10° S
Cosmos 2360 Rocket 2.2 20:57:16 10° NNW 21:02:56 72° ENE 21:07:43 15° SSE
Cosmos 1151 Rocket 3.0 20:59:45 10° N 21:04:05 68° E 21:07:57 13° SSE
ERS-1 Rocket 3.0 20:59:34 11° SSE 21:04:17 65° ENE 21:09:17 10° N
Cosmos 1633 Rocket 4.3 21:02:35 18° SE 21:04:25 23° E 21:07:53 10° NE
Meteor 2-20 Rocket 4.5 20:58:50 10° S 21:04:59 90° W 21:11:09 10° N
ERBS 2.2 21:01:43 10° SSW 21:05:13 72° SE 21:08:42 10° NE
Meteor 2-2 Rocket 4.5 21:01:45 10° N 21:07:47 83° W 21:13:47 10° S
SL-16 R/B 3.8 21:04:39 10° NW 21:09:38 32° WSW 21:14:36 10° SSW
Sakura Rocket 3.4 21:05:35 10° WSW 21:10:08 41° SSE 21:12:17 22° ESE
Envisat 3.4 21:08:20 18° SE 21:11:43 44° ENE 21:16:32 10° N
Cosmos 1674 3.8 21:08:43 10° SSW 21:12:23 45° W 21:16:06 10° N
SL-14 R/B 3.8 21:14:22 23° SE 21:16:13 38° E 21:19:56 10° NNE
NOSS 3-1 (C) 4.1 21:12:33 10° SW 21:18:11 57° WNW 21:24:20 10° NNE
Cosmos 883 Rocket 4.4 21:12:32 10° N 21:18:43 82° E 21:24:18 13° S
Cosmos 304 Rocket 3.8 21:16:36 10° NNW 21:21:25 79° WSW 21:24:54 19° S
Cosmos 1805 Rocket 3.5 21:17:52 12° S 21:22:00 72° E 21:26:26 10° N
Cosmos 1908 4.0 21:18:34 10° NNW 21:22:23 52° W 21:26:00 11° S
SJ-11-01 4.4 21:18:47 14° S 21:22:47 79° WSW 21:27:32 10° NNW
PSLV R/B 4.3 21:23:17 26° ENE 21:23:22 26° ENE 21:26:00 10° NNE
Cosmos 220 Rocket 4.2 21:22:37 18° S 21:25:38 51° ESE 21:29:56 10° NNE
Cosmos 2227 Rocket 2.6 21:23:05 18° SSE 21:26:42 39° ESE 21:31:55 10° NE
Cosmos 1937 Rocket 3.5 21:24:01 10° S 21:29:09 59° ESE 21:34:16 10° NNE
Cosmos 1300 2.9 21:31:13 10° N 21:34:57 51° E 21:35:46 43° SE
Cosmos 990 Rocket 4.2 21:32:42 27° SSE 21:35:04 45° ESE 21:39:57 10° NNE
Cosmos 2112 Rocket 4.1 21:30:53 10° NNW 21:36:08 76° WSW 21:39:25 24° S
H-2A R/B 2.3 21:36:22 23° S 21:39:07 71° WSW 21:43:38 10° NNW
SPOT 5 2.7 21:40:03 36° SSE 21:41:52 69° ENE 21:46:39 10° N
Cosmos 1666 Rocket 3.5 21:42:22 23° S 21:45:04 83° W 21:49:31 10° N
Cosmos 292 Rocket 4.4 21:40:42 10° N 21:45:08 37° ENE 21:46:00 34° E
H-2A R/B 3.0 21:42:33 10° WSW 21:45:57 60° SSE 22:02:10 10° E
Meteor 2-11 Rocket 4.4 21:39:58 10° N 21:46:05 66° E 21:48:55 33° SSE
ARGOS 4.0 21:44:45 29° E 21:46:08 34° ENE 21:50:56 10° N
Cosmos 1707 Rocket 3.4 21:42:35 10° N 21:46:59 77° E 21:48:16 45° SSE
Meteor 1-11 4.4 21:41:30 10° SSW 21:47:16 75° W 21:52:59 10° N
CZ-4B R/B 3.4 21:46:56 10° NNE 21:52:09 72° ESE 21:54:30 33° S
Cosmos 1241 Rocket 4.4 21:46:48 10° SSW 21:52:57 90° WNW 21:59:13 10° NNE
Cosmos 2297 Rocket 2.4 21:51:53 39° SE 21:53:08 46° ESE 21:58:29 10° NNE
OTV 4 2.6 21:50:51 10° WNW 21:53:23 25° NNW 21:54:46 18° NNE
Cosmos 2333 Rocket 3.2 21:49:16 10° N 21:54:23 32° ENE 21:55:43 29° E
Hubble Space Telescope 0.8 21:51:00 10° WSW 21:54:58 59° S 21:54:58 59° S
Cosmos 1455 4.2 21:54:15 10° NNE 21:55:49 17° NE 21:55:49 17° NE
Cosmos 2315 Rocket 4.2 21:51:40 10° NNW 21:57:48 67° W 22:01:52 22° S
Cosmos 1470 Rocket 3.8 21:59:12 48° E 21:59:12 48° E 22:03:06 10° NNE
Cosmos 1726 2.0 21:55:15 10° N 21:59:02 87° ENE 21:59:13 81° SSE
Cosmos 1933 Rocket 3.9 22:00:00 48° E 22:00:00 48° E 22:04:08 10° NNE
SL-23 DEB 3.5 21:57:23 10° NW 22:01:40 85° NNE 22:01:40 85° NNE
Cosmos 2219 Rocket 2.5 21:56:29 10° N 22:01:55 50° ENE 22:03:06 43° ESE
SL-08 RB Rocket 4.3 22:05:02 39° ENE 22:05:02 39° ENE 22:09:08 10° N
COSMOS 2428 2.9 22:00:41 10° NNW 22:06:20 67° WSW 22:08:25 39° S
Meteor 2-10 4.4 22:00:51 10° N 22:06:29 54° E 22:07:31 48° ESE
Meteor 1-4 Rocket 2.8 22:03:48 10° N 22:06:57 60° NNE 22:06:57 60° NNE
NOSS 0 Rocket 4.2 22:02:11 10° N 22:08:09 51° ENE 22:09:35 43° ESE
Lacrosse 4 Rocket 4.0 22:08:10 10° NE 22:08:50 10° NE 22:08:55 10° NE
DELTA 2 R/B (1) 3.9 22:04:27 10° WNW 22:09:48 50° SW 22:10:38 46° S
Nadezhda 1 Rocket 4.2 22:05:28 10° N 22:11:20 48° E 22:12:17 44° ESE
SL-08 R/B 4.5 22:09:43 30° S 22:13:02 83° W 22:19:21 10° N
Terra 3.3 22:14:22 23° ENE 22:14:22 23° ENE 22:17:41 10° NNE
H-2A R/B 3.1 22:15:25 32° ENE 22:15:37 32° ENE 22:20:21 10° N
Cosmos 1745 Rocket 3.9 22:16:53 38° S 22:19:30 86° W 22:25:42 10° N
COSMOS 2455 4.3 22:16:05 10° N 22:20:47 23° NE 22:21:50 22° ENE
Cosmos 1125 Rocket 3.8 22:23:43 50° ENE 22:23:43 50° ENE 22:28:12 10° NNE
Delta 2 Rocket 4.1 22:19:30 10° WNW 22:22:05 41° NW 22:22:05 41° NW
Cosmos 1980 3.8 22:20:51 10° N 22:26:25 58° ENE 22:26:49 57° E
Cosmos 1709 Rocket 4.4 22:27:43 44° E 22:27:43 44° E 22:33:16 10° NNE
SPOT 1/Viking Rocket 3.5 22:27:31 64° SSW 22:28:12 75° WSW 22:33:22 10° NNW
Cosmos 1626 3.5 22:36:48 37° NNW 22:36:48 37° NNW 22:39:14 10° N
OAO 2 Rocket 4.1 22:31:16 10° WNW 22:36:29 52° N 22:38:02 39° NE
Cosmos 1386 Rocket 4.3 22:36:10 60° SSW 22:37:20 85° W 22:43:21 10° N
Cosmos 2237 Rocket 2.2 22:32:28 10° NNW 22:38:09 68° ENE 22:38:17 68° ENE
YAOGAN 6 4.4 22:39:28 28° WNW 22:39:28 28° WNW 22:42:02 10° NW
Cosmos 1271 Rocket 4.1 22:37:43 10° NNW 22:40:45 36° WNW 22:40:45 36° WNW
NOAA 11 4.3 22:45:11 63° SW 22:45:35 65° WSW 22:51:01 10° NNW
ATLAS 2AS CENTAUR R/B 3.6 22:38:42 10° SW 22:45:49 54° WNW 22:53:35 10° NNE
Cosmos 1862 Rocket 4.3 22:41:55 10° N 22:45:04 48° N 22:45:04 48° N
ATLAS 3B R/B 3.1 22:53:39 10° NNW 23:00:13 46° NE 23:00:41 46° ENE
Cosmos 2181 Rocket 4.2 23:01:42 10° N 23:07:35 61° ENE 23:07:35 61° ENE
Cosmos 2227 Rocket 4.3 23:06:27 10° WSW 23:10:48 23° WNW 23:15:11 10° N
FALCON 9 R/B 3.4 22:55:37 10° W 23:18:22 75° N 23:20:47 47° ENE
SL-16 R/B 2.8 23:28:13 10° NNW 23:32:32 54° NNW 23:32:32 54° NNW
Cosmos 2297 Rocket 4.4 23:33:35 11° WSW 23:37:20 19° WNW 23:41:20 10° NNW
Cosmos 2333 Rocket 3.8 23:33:41 10° NW 23:37:44 27° W 23:37:44 27° W
SeaSat 1 4.5 23:40:22 20° NE 23:40:22 20° NE 23:42:59 10° N
Cosmos 2219 Rocket 4.3 23:42:03 10° WNW 23:44:50 16° W 23:44:50 16° W
Lacrosse 4 Rocket 3.8 23:43:30 10° NNW 23:45:16 23° NW 23:45:16 23° NW
Terra 3.9 23:53:15 21° WNW 23:53:15 21° WNW 23:55:27 10° NW
H-2A R/B 3.9 23:56:03 23° WNW 23:56:03 23° WNW 23:59:20 10° NW
